Regional Weather Roundup
Issued by NWS Portland, ME

Home | Current Version | Previous Version | Text Only | Print | Product List | Glossary On
Versions: 1 2 3 4 5 6 7 8 9 10 11 12 13 14 15 16 17 18 19 20 21 22 23 24 25 26 27 28 29 30 31 32 33 34 35 36 37 38 39 40 41 42 43 44 45 46 47 48 49 50
000
ASUS41 KGYX 061510
RWRGYX
WEATHER ROUNDUP FOR MAINE AND NEW HAMPSHIRE
NATIONAL WEATHER SERVICE GRAY ME
1000 AM EST TUE DEC 06 2016

MEZ002-005-006-010-012-015-018-020-021-024-026-027-029-061600-
MAINE

CITY           SKY/WX    TMP DP  RH WIND       PRES   REMARKS
PORTLAND       MOSUNNY   33  27  78 N3        30.12R
SANFORD        SUNNY     37  32  82 CALM      30.11S
BAR HARBOR     MOSUNNY   32  24  72 N7        30.11R
WISCASSET      SUNNY     32  27  81 CALM      30.13F
ROCKLAND       SUNNY     32  25  75 VRB6      30.10S
FRYEBURG       SUNNY     32  27  81 CALM      30.10R
LEWISTONAUBURN SUNNY     31  27  85 NE10      30.11F
AUGUSTA        SUNNY     27  22  81 N6        30.11S
WATERVILLE     SUNNY     33  29  85 NW5       30.09R
BANGOR         MOSUNNY   28  22  78 NW8       30.10S
GREENVILLE       N/A     22  19  89 N8        30.00S
MILLINOCKET    CLOUDY    24  20  84 CALM      30.08F
HOULTON        CLOUDY    20  16  84 N7        30.05S
PRESQUE ISLE   CLOUDY    22  20  92 CALM      30.06S
FRENCHVILLE    CLOUDY    20  13  74 W15       30.01S WCI   6
CARIBOU        CLOUDY    21  17  84 W3        30.03F
$$

NHZ002-005-008-009-011-012-014-061600-
NEW HAMPSHIRE

CITY           SKY/WX    TMP DP  RH WIND       PRES   REMARKS
PORTSMOUTH     MOSUNNY   35  29  78 NW5       30.10S
ROCHESTER      SUNNY     37  27  67 CALM      30.10S
NASHUA         SUNNY     32  29  88 CALM      30.13S
MANCHESTER     MOSUNNY   33  27  78 CALM      30.11S
CONCORD        SUNNY     33  30  88 CALM      30.12S
LACONIA        MOSUNNY   36  27  69 W8        30.10S
PLYMOUTH         N/A     35  26  72 W9        30.11R
BERLIN         CLOUDY    29  22  75 NW3       30.08S
WHITEFIELD     CLOUDY    29  24  82 CALM      30.10S
JAFFREY        SUNNY     37  26  64 VRB6      30.09R
KEENE          SUNNY     33  28  81 CALM      30.14R
LEBANON        MOSUNNY   31  28  89 CALM      30.12R
MT WASHINGTON  PTSUNNY   19   7  58 NW36G47     N/A  WCI  -1
$$

VTZ005-007-008-061600-
VERMONT

CITY           SKY/WX    TMP DP  RH WIND       PRES   REMARKS
ST JOHNSBURY     N/A     31  23  72 MISG      30.11S
MONTPELIER     CLOUDY    28  25  88 NE5       30.14S
BURLINGTON     PTSUNNY   32  27  81 E3        30.14F
$$

MAZ007-012-024-CTZ003-RIZ002-NYZ038-NYZ072-061600-
SOUTHERN NEW ENGLAND AND NY

CITY           SKY/WX    TMP DP  RH WIND       PRES   REMARKS
BOSTON         MOSUNNY   40  30  67 NW14G20   30.14R
WORCESTER      SUNNY     38  27  64 NW3       30.11R
NANTUCKET      SUNNY     44  30  57 N14       30.11R
PROVIDENCE     MOSUNNY   42  30  62 N7        30.15R
HARTFORD       MOSUNNY   43  30  60 N7        30.14R
ALBANY         MOSUNNY   39  32  76 S3        30.15R
NEW YORK CITY  CLOUDY    46  30  53 NE10      30.14S
$$

ANZ081-ANZ082-ANZ150-NHZ014-MEZ023>029-061600-
COASTAL MARINE OBSERVATIONS

STATION/POSITION TIME  TEMP    WIND        PRES    WAVE
                       AIR SEA DIR/SP/G            HT/PER
                 (UTC) (F)     (DEG/KT/KT) (MB)    (FT/S)
MOUNT DESERT ROC 1500   31                 1018.8R
MATINICUS ROCK   1400   33     350/ 19/ 21 1018.2R
ISLE OF SHOALS   1400   36     300/ 14/ 17 1019.3R
JEFFREYS LEDGE   1438      51                N/A     3/12
CASHES LEDGE BUO 1450   37 50  330/ 16/ 19 1019.2R   4/ 5
GEORGES BANK BUO 1450   46 51              1014.6R   9/ 8
$$

.............KEY..............
   WCI - WIND CHILL
   TC  - TEMPERATURE IN CELSIUS
   VSB - VISIBILITY IN MILES
   HX  - HEAT INDEX
   FAIR- INDICATES FEW OR NO CLOUDS BELOW 12,000 FT, WITH NO
         SIGNIFICANT WEATHER AND/OR OBSTRUCTIONS TO VISIBILITY.





USA.gov is the U.S. government's official web portal to all federal, state and local government web resources and services.